| time (UTC) | temp F | wind direction | speed MPH | gust MPH | rain 1hr in | rain 24hr in | rain mn in | humidity % | barometer mb |
| 20260509150631 | 80 | 195 | 8.0 | 14.0 | 0.00 | 0.00 | 0.00 | 80 | 1009.0 |
| 20260509145630 | 80 | 153 | 11.0 | 16.0 | 0.00 | 0.00 | 0.00 | 81 | 1008.9 |
| 20260509144631 | 80 | 186 | 7.0 | 14.0 | 0.00 | 0.00 | 0.00 | 83 | 1008.8 |
| 20260509143631 | 79 | 171 | 13.0 | 13.0 | 0.00 | 0.00 | 0.00 | 84 | 1008.7 |
| 20260509142630 | 78 | 207 | 3.0 | 11.0 | 0.00 | 0.00 | 0.00 | 86 | 1008.5 |
| 20260509140631 | 76 | 188 | 6.0 | 11.0 | 0.00 | 0.00 | 0.00 | 89 | 1008.4 |
| 20260509135630 | 76 | 181 | 3.0 | 12.0 | 0.00 | 0.00 | 0.00 | 90 | 1008.4 |
| 20260509134631 | 75 | 180 | 4.0 | 11.0 | 0.00 | 0.00 | 0.00 | 91 | 1008.2 |
| 20260509133631 | 74 | 171 | 6.0 | 13.0 | 0.00 | 0.00 | 0.00 | 90 | 1008.4 |
| 20260509132630 | 74 | 185 | 7.0 | 12.0 | 0.00 | 0.00 | 0.00 | 90 | 1008.6 |
| 20260509131631 | 73 | 180 | 8.0 | 11.0 | 0.00 | 0.00 | 0.00 | 90 | 1008.5 |
| 20260509130630 | 73 | 169 | 6.0 | 11.0 | 0.00 | 0.00 | 0.00 | 90 | 1008.9 |
| 20260509125631 | 73 | 199 | 3.0 | 7.0 | 0.00 | 0.00 | 0.00 | 90 | 1008.8 |
| 20260509124630 | 73 | 197 | 4.0 | 5.0 | 0.00 | 0.00 | 0.00 | 90 | 1008.8 |
| 20260509123631 | 73 | 182 | 2.0 | 3.0 | 0.00 | 0.00 | 0.00 | 90 | 1008.9 |
| 20260509121631 | 73 | 26 | 1.0 | 2.0 | 0.00 | 0.00 | 0.00 | 90 | 1008.9 |
| 20260509120630 | 72 | 336 | 0.0 | 4.0 | 0.00 | 0.00 | 0.00 | 90 | 1008.9 |
| 20260509115630 | 72 | 340 | 0.0 | 2.0 | 0.00 | 0.00 | 0.00 | 90 | 1009.1 |
| 20260509114631 | 73 | 236 | 2.0 | 3.0 | 0.00 | 0.00 | 0.00 | 89 | 1009.3 |
| 20260509113630 | 73 | 154 | 0.0 | 3.0 | 0.00 | 0.00 | 0.00 | 89 | 1009.5 |
| 20260509112630 | 73 | 171 | 2.0 | 2.0 | 0.00 | 0.00 | 0.00 | 89 | 1009.9 |
| 20260509105631 | 73 | 306 | 0.0 | 1.0 | 0.00 | 0.00 | 0.00 | 90 | 1010.5 |
| 20260509103630 | 73 | 5 | 0.0 | 1.0 | 0.00 | 0.00 | 0.00 | 90 | 1010.5 |
| 20260509102630 | 73 | 5 | 0.0 | 0.0 | 0.00 | 0.00 | 0.00 | 89 | 1010.5 |
| 20260509101630 | 73 | 5 | 0.0 | 4.0 | 0.00 | 0.00 | 0.00 | 89 | 1010.2 |
| 20260509100630 | 73 | 43 | 3.0 | 4.0 | 0.00 | 0.00 | 0.00 | 89 | 1010.0 |
| 20260509095630 | 73 | 17 | 3.0 | 4.0 | 0.00 | 0.00 | 0.00 | 89 | 1009.8 |
| 20260509094631 | 73 | 350 | 2.0 | 4.0 | 0.00 | 0.00 | 0.00 | 89 | 1009.7 |
| 20260509093630 | 73 | 285 | 0.0 | 0.0 | 0.00 | 0.00 | 0.00 | 89 | 1009.3 |
| 20260509092630 | 73 | 220 | 0.0 | 3.0 | 0.00 | 0.00 | 0.00 | 89 | 1008.9 |
| 20260509091630 | 73 | 161 | 0.0 | 0.0 | 0.00 | 0.00 | 0.00 | 89 | 1008.6 |
| 20260509085630 | 73 | 162 | 0.0 | 0.0 | 0.00 | 0.00 | 0.00 | 89 | 1008.8 |
| 20260509083630 | 73 | 190 | 0.0 | 0.0 | 0.00 | 0.00 | 0.00 | 88 | 1009.3 |
| 20260509082630 | 73 | 170 | 0.0 | 0.0 | 0.00 | 0.00 | 0.00 | 89 | 1009.4 |
| 20260509075630 | 73 | 122 | 0.0 | 0.0 | 0.00 | 0.00 | 0.00 | 88 | 1009.6 |
| 20260509074630 | 73 | 122 | 0.0 | 2.0 | 0.00 | 0.00 | 0.00 | 88 | 1009.4 |
| 20260509073630 | 73 | 254 | 1.0 | 5.0 | 0.00 | 0.00 | 0.00 | 88 | 1009.8 |
| 20260509072630 | 73 | 177 | 1.0 | 7.0 | 0.00 | 0.00 | 0.00 | 88 | 1009.7 |
| 20260509071630 | 73 | 180 | 5.0 | 6.0 | 0.00 | 0.00 | 0.00 | 87 | 1009.9 |
| 20260509070630 | 73 | 184 | 3.0 | 5.0 | 0.00 | 0.00 | 0.00 | 87 | 1009.9 |
| 20260509064630 | 73 | 198 | 4.0 | 4.0 | 0.00 | 0.00 | 0.00 | 87 | 1009.6 |
| 20260509063630 | 74 | 182 | 3.0 | 4.0 | 0.00 | 0.00 | 0.00 | 87 | 1009.8 |
| 20260509062630 | 74 | 146 | 2.0 | 5.0 | 0.00 | 0.00 | 0.00 | 86 | 1009.8 |
| 20260509061630 | 74 | 153 | 4.0 | 6.0 | 0.00 | 0.00 | 0.00 | 86 | 1009.5 |
| 20260509060630 | 74 | 126 | 2.0 | 8.0 | 0.00 | 0.00 | 0.00 | 85 | 1009.5 |
| 20260509055630 | 74 | 188 | 2.0 | 11.0 | 0.00 | 0.00 | 0.00 | 85 | 1009.6 |
| 20260509054630 | 75 | 162 | 4.0 | 8.0 | 0.00 | 0.00 | 0.00 | 85 | 1009.3 |
| 20260509053630 | 75 | 163 | 5.0 | 9.0 | 0.00 | 0.00 | 0.00 | 85 | 1008.8 |
| 20260509052630 | 75 | 136 | 4.0 | 9.0 | 0.00 | 0.00 | 0.00 | 84 | 1008.5 |
| 20260509051630 | 75 | 150 | 2.0 | 8.0 | 0.00 | 0.00 | 0.00 | 84 | 1008.5 |
| 20260509050630 | 75 | 169 | 4.0 | 7.0 | 0.00 | 0.00 | 0.00 | 84 | 1008.4 |
| 20260509045630 | 75 | 148 | 3.0 | 6.0 | 0.00 | 0.00 | 0.00 | 84 | 1008.4 |
| 20260509044630 | 75 | 158 | 3.0 | 7.0 | 0.00 | 0.00 | 0.00 | 84 | 1008.6 |
| 20260509043630 | 75 | 186 | 2.0 | 6.0 | 0.00 | 0.00 | 0.00 | 84 | 1008.8 |
| 20260509042630 | 75 | 212 | 2.0 | 5.0 | 0.00 | 0.00 | 0.00 | 84 | 1008.8 |
| 20260509041630 | 74 | 146 | 2.0 | 7.0 | 0.00 | 0.00 | 0.00 | 84 | 1008.9 |
| 20260509040630 | 74 | 184 | 2.0 | 6.0 | 0.00 | 0.00 | 0.00 | 85 | 1008.9 |
| 20260509035630 | 74 | 166 | 1.0 | 3.0 | 0.00 | 0.00 | 0.00 | 84 | 1009.0 |
| 20260509034630 | 74 | 126 | 2.0 | 3.0 | 0.00 | 0.00 | 0.00 | 84 | 1009.0 |
| 20260509033630 | 74 | 138 | 0.0 | 4.0 | 0.00 | 0.00 | 0.00 | 84 | 1008.8 |
| 20260509032630 | 74 | 154 | 1.0 | 3.0 | 0.00 | 0.00 | 0.00 | 84 | 1008.5 |
| 20260509030630 | 74 | 157 | 0.0 | 4.0 | 0.00 | 0.00 | 0.00 | 83 | 1008.4 |
| 20260509025630 | 74 | 139 | 2.0 | 3.0 | 0.00 | 0.00 | 0.00 | 82 | 1008.3 |
| 20260509023630 | 75 | 118 | 0.0 | 2.0 | 0.00 | 0.00 | 0.00 | 81 | 1008.4 |
| 20260509022630 | 75 | 148 | 1.0 | 3.0 | 0.00 | 0.00 | 0.00 | 81 | 1008.3 |
| 20260509021630 | 76 | 119 | 0.0 | 4.0 | 0.00 | 0.00 | 0.00 | 81 | 1008.0 |
| 20260509020630 | 76 | 119 | 1.0 | 4.0 | 0.00 | 0.00 | 0.00 | 80 | 1008.0 |
| 20260509015630 | 76 | 149 | 2.0 | 3.0 | 0.00 | 0.00 | 0.00 | 80 | 1007.8 |
| 20260509014630 | 77 | 126 | 0.0 | 4.0 | 0.00 | 0.00 | 0.00 | 79 | 1007.8 |
| 20260509013630 | 77 | 144 | 3.0 | 4.0 | 0.00 | 0.00 | 0.00 | 79 | 1007.6 |
| 20260509012630 | 77 | 118 | 1.0 | 4.0 | 0.00 | 0.00 | 0.00 | 78 | 1007.7 |
| 20260509011630 | 77 | 113 | 3.0 | 4.0 | 0.00 | 0.00 | 0.00 | 78 | 1007.6 |
| 20260509010630 | 78 | 115 | 2.0 | 7.0 | 0.00 | 0.00 | 0.00 | 77 | 1007.7 |
| 20260509005630 | 78 | 100 | 1.0 | 7.0 | 0.00 | 0.00 | 0.00 | 77 | 1007.7 |
| 20260509004630 | 78 | 105 | 2.0 | 10.0 | 0.00 | 0.00 | 0.00 | 77 | 1007.5 |
| 20260509003630 | 78 | 121 | 3.0 | 8.0 | 0.00 | 0.00 | 0.00 | 76 | 1007.6 |
| 20260509002630 | 78 | 88 | 3.0 | 7.0 | 0.00 | 0.00 | 0.00 | 76 | 1007.6 |
| 20260509001630 | 78 | 121 | 2.0 | 7.0 | 0.00 | 0.00 | 0.00 | 76 | 1007.6 |
| 20260509000630 | 78 | 86 | 5.0 | 8.0 | 0.00 | 0.00 | 0.00 | 75 | 1007.7 |
| 20260508235630 | 78 | 138 | 5.0 | 9.0 | 0.00 | 0.00 | 0.00 | 75 | 1007.6 |
| 20260508234630 | 79 | 84 | 7.0 | 9.0 | 0.00 | 0.00 | 0.00 | 75 | 1007.8 |
| 20260508233630 | 78 | 111 | 2.0 | 6.0 | 0.00 | 0.00 | 0.00 | 75 | 1007.7 |
| 20260508232630 | 78 | 109 | 3.0 | 7.0 | 0.00 | 0.00 | 0.00 | 75 | 1007.7 |
| 20260508231630 | 79 | 99 | 2.0 | 6.0 | 0.00 | 0.00 | 0.00 | 74 | 1007.8 |
| 20260508230630 | 79 | 111 | 1.0 | 8.0 | 0.00 | 0.00 | 0.00 | 74 | 1007.8 |
| 20260508225630 | 79 | 136 | 3.0 | 7.0 | 0.00 | 0.00 | 0.00 | 74 | 1007.7 |
| 20260508224630 | 79 | 92 | 6.0 | 8.0 | 0.00 | 0.00 | 0.00 | 74 | 1007.7 |
| 20260508223630 | 79 | 93 | 4.0 | 10.0 | 0.00 | 0.00 | 0.00 | 74 | 1007.7 |
| 20260508222630 | 78 | 80 | 4.0 | 10.0 | 0.00 | 0.00 | 0.00 | 74 | 1007.7 |
| 20260508221630 | 78 | 70 | 3.0 | 9.0 | 0.00 | 0.00 | 0.00 | 74 | 1007.8 |
| 20260508215630 | 79 | 56 | 5.0 | 11.0 | 0.00 | 0.00 | 0.00 | 74 | 1007.9 |
| 20260508214630 | 79 | 68 | 4.0 | 9.0 | 0.00 | 0.00 | 0.00 | 74 | 1007.9 |
| 20260508213630 | 78 | 55 | 4.0 | 10.0 | 0.00 | 0.00 | 0.00 | 74 | 1008.0 |
| 20260508212630 | 79 | 52 | 5.0 | 9.0 | 0.00 | 0.00 | 0.00 | 75 | 1008.2 |
| 20260508211630 | 78 | 76 | 5.0 | 9.0 | 0.00 | 0.00 | 0.00 | 75 | 1008.4 |
| 20260508210630 | 77 | 94 | 6.0 | 8.0 | 0.00 | 0.00 | 0.00 | 75 | 1008.6 |
| 20260508205631 | 77 | 49 | 2.0 | 10.0 | 0.00 | 0.00 | 0.00 | 75 | 1008.9 |
| 20260508203631 | 78 | 83 | 4.0 | 10.0 | 0.00 | 0.00 | 0.00 | 74 | 1009.0 |
| 20260508202630 | 77 | 49 | 7.0 | 9.0 | 0.00 | 0.00 | 0.00 | 76 | 1009.1 |
| 20260508201629 | 76 | 79 | 7.0 | 8.0 | 0.00 | 0.00 | 0.00 | 75 | 1009.6 |
| 20260508200630 | 76 | 47 | 3.0 | 8.0 | 0.00 | 0.00 | 0.00 | 76 | 1009.6 |
| 20260508194629 | 76 | 38 | 3.0 | 7.0 | 0.00 | 0.00 | 0.00 | 75 | 1009.8 |
| 20260508193630 | 76 | 27 | 4.0 | 8.0 | 0.00 | 0.00 | 0.00 | 75 | 1010.0 |
| 20260508192630 | 76 | 105 | 6.0 | 9.0 | 0.00 | 0.00 | 0.00 | 73 | 1010.1 |
| 20260508191630 | 76 | 49 | 7.0 | 9.0 | 0.00 | 0.00 | 0.00 | 73 | 1010.0 |
| 20260508190629 | 77 | 45 | 2.0 | 9.0 | 0.00 | 0.00 | 0.00 | 75 | 1010.1 |
| 20260508185629 | 75 | 85 | 3.0 | 8.0 | 0.00 | 0.00 | 0.00 | 75 | 1010.4 |
| 20260508184630 | 75 | 94 | 7.0 | 7.0 | 0.00 | 0.00 | 0.00 | 74 | 1010.6 |
| 20260508183629 | 76 | 324 | 1.0 | 6.0 | 0.00 | 0.00 | 0.00 | 73 | 1010.8 |
| 20260508181630 | 75 | 44 | 2.0 | 7.0 | 0.00 | 0.00 | 0.00 | 75 | 1010.9 |
| 20260508180630 | 74 | 118 | 4.0 | 9.0 | 0.00 | 0.00 | 0.00 | 75 | 1011.0 |
| 20260508175630 | 73 | 17 | 3.0 | 9.0 | 0.00 | 0.00 | 0.00 | 75 | 1011.1 |
| 20260508174630 | 73 | 16 | 3.0 | 8.0 | 0.00 | 0.00 | 0.00 | 75 | 1011.2 |
| 20260508173630 | 72 | 59 | 3.0 | 6.0 | 0.00 | 0.00 | 0.00 | 76 | 1011.3 |
| 20260508172630 | 71 | 43 | 3.0 | 6.0 | 0.00 | 0.00 | 0.00 | 76 | 1011.4 |
| 20260508171631 | 70 | 20 | 1.0 | 8.0 | 0.00 | 0.00 | 0.00 | 76 | 1011.6 |
| 20260508170630 | 70 | 9 | 7.0 | 7.0 | 0.00 | 0.00 | 0.00 | 76 | 1011.7 |
| 20260508164629 | 70 | 82 | 0.0 | 4.0 | 0.00 | 0.00 | 0.00 | 76 | 1012.0 |
| 20260508163629 | 70 | 48 | 3.0 | 5.0 | 0.00 | 0.00 | 0.00 | 76 | 1012.2 |
| 20260508162630 | 69 | 27 | 0.0 | 4.0 | 0.00 | 0.00 | 0.00 | 76 | 1012.3 |
| 20260508161630 | 69 | 279 | 0.0 | 3.0 | 0.00 | 0.00 | 0.00 | 77 | 1012.4 |
| 20260508160629 | 68 | 308 | 1.0 | 3.0 | 0.00 | 0.00 | 0.00 | 78 | 1012.5 |
| 20260508155629 | 68 | 344 | 0.0 | 3.0 | 0.00 | 0.00 | 0.00 | 78 | 1012.6 |
| 20260508153629 | 67 | 96 | 2.0 | 3.0 | 0.00 | 0.00 | 0.00 | 78 | 1012.5 |